Flag for Norway Weather past 2 weeks in Halden, Norway

Now
68 °F

Mild.


Feels Like: 68 °F
Forecast: 60 / 85 °F
Wind: 7 mph from Northeast

Location: Stromtangen Fyr

Current Time: Jul 25, 2014 at 4:41:27 AM

Latest Report: Jul 25, 2014 at 4:00 AM


Visibility: N/A

Pressure: 30.19 "Hg

Humidity: 74%

Dew point: 60 °F

Location of HaldenLocation

Historic Weather in Halden — Graph

°F

Halden temperature yesterday

Maximum temperature yesterday: 79 °F (at 7:00 PM)
Minimum temperature yesterday: 69 °F (at 5:00 AM)
Average temperature yesterday: 74 °F

Past Weeks' High & Low Weather Summary

 TemperatureHumidityPressure
High82 °F (Jul 21, 7:00 PM)89% (Jul 18, 6:00 AM)30.30 "Hg (Jul 18, 6:00 AM)
Low60 °F (Jul 19, 5:00 AM)34% (Jul 12, 5:00 PM)29.60 "Hg (Jul 14, 12:00 AM)
Average69 °F67%30.03 "Hg
* Reported Jul 10 3:00 AM — Jul 25 3:00 AM, Halden, Weather by CustomWeather, © 2014

Note: Actual official high and low records may vary slightly from our data, if they occured in-between our weather recording intervals... More about our weather records

Advertising

Halden weather history for previous 24 hours

 ConditionsComfort  
Time TempWeatherWind HumidityBarometerVisibility
3:00 AM
Jul 25
69 °FMild.6 mph69%30.19 "HgN/A
2:00 AM70 °FMild.6 mph67%30.19 "HgN/A
1:00 AM71 °FMild.6 mph63%30.20 "HgN/A
12:00 AM72 °FMild.7 mph60%30.19 "HgN/A
11:00 PM
Jul 24
72 °FMild.5 mph62%30.18 "HgN/A
10:00 PM74 °FMild.7 mph60%30.18 "HgN/A
9:00 PM75 °FMild.1 mph57%30.15 "HgN/A
8:00 PM76 °FMild.6 mph58%30.16 "HgN/A
7:00 PM79 °FWarm.2 mph56%30.16 "HgN/A
6:00 PM78 °FWarm.5 mph61%30.14 "HgN/A
5:00 PM78 °FWarm.7 mph60%30.14 "HgN/A
4:00 PM79 °FWarm.7 mph57%30.15 "HgN/A
3:00 PM79 °FWarm.7 mph60%30.16 "HgN/A
2:00 PM78 °FWarm.6 mph60%30.19 "HgN/A
1:00 PM78 °FWarm.3 mph60%30.20 "HgN/A
12:00 PM76 °FMild.3 mph69%30.21 "HgN/A
11:00 AM76 °FMild.2 mph67%30.22 "HgN/A
10:00 AM76 °FMild.2 mph63%30.22 "HgN/A
9:00 AM74 °FMild.2 mph74%30.22 "HgN/A
8:00 AM75 °FMild.2 mph68%30.22 "HgN/A
7:00 AM70 °FMild.2 mph82%30.22 "HgN/A
6:00 AM69 °FMild.3 mph86%30.22 "HgN/A
5:00 AM69 °FMild.3 mph86%30.22 "HgN/A
4:00 AM69 °FMild.3 mph86%30.22 "HgN/A
Weather by CustomWeather, © 2014

See weather overviewHow to use our weather pages